DW8501 Madrid ES current weather conditions

sailwx.info

Wind from 084 at 14 knots gusting 19

Air temperature 21.1° C
Dewpoint 11.7° C

Last reported at 2014-Jul-28 23:50 UTC.
Time now 2014-Jul-29 00:33 UTC

Location: N 40°27' W 003°35'.
View on Google Maps.

See reports from other nearby stations

  
Tides and Currents Weather Stations Pressure Air Temp Water Temp Dewpoint Dewpoint Depression Visibility Wind Speed Wind Dir Waves Ship Positions
date/time (UTC)wind fromknots sea level pressurealtimeterstation pressurevisibilityair tempwater tempwave heightnotes
2014-Jul-28 23:50 084 14 gusting 19 21.1
2014-Jul-28 23:45 093 11 gusting 19 21.7
2014-Jul-28 23:40 088 11 gusting 19 21.7
2014-Jul-28 23:35 068 13 gusting 26 21.7
2014-Jul-28 23:30 066 14 gusting 26 21.7
2014-Jul-28 23:25 073 13 gusting 22 22.2
2014-Jul-28 23:20 076 13 gusting 22 22.2
2014-Jul-28 23:15 068 16 gusting 22 22.2
2014-Jul-28 23:10 085 17 gusting 21 22.2
2014-Jul-28 23:05 103 12 gusting 21 22.2
2014-Jul-28 23:00 077 14 gusting 20 22.8
2014-Jul-28 22:55 067 13 gusting 20 22.8
2014-Jul-28 22:50 071 14 gusting 20 22.8
2014-Jul-28 22:45 066 15 gusting 19 23.3
2014-Jul-28 22:40 059 12 gusting 19 23.3
2014-Jul-28 22:35 063 14 gusting 19 23.3
2014-Jul-28 22:30 073 12 gusting 17 23.3
2014-Jul-28 22:25 075 9 gusting 14 23.9
2014-Jul-28 22:20 087 7 gusting 14 23.9
2014-Jul-28 22:15 088 9 gusting 19 23.9
2014-Jul-28 22:10 085 10 gusting 19 24.4
2014-Jul-28 22:05 081 13 gusting 22 24.4
2014-Jul-28 22:00 078 13 gusting 22 24.4
2014-Jul-28 21:55 078 9 gusting 21 24.4
2014-Jul-28 21:50 072 14 gusting 21 25.0
2014-Jul-28 21:45 079 16 gusting 21 25.0
2014-Jul-28 21:40 083 12 gusting 19 25.6
2014-Jul-28 21:35 076 13 gusting 21 25.6
2014-Jul-28 21:30 062 14 gusting 23 26.1
2014-Jul-28 21:25 054 13 gusting 23 26.7
2014-Jul-28 21:20 053 15 gusting 19 26.7
2014-Jul-28 21:15 050 8 gusting 16 26.7
2014-Jul-28 21:10 055 9 gusting 16 26.7
2014-Jul-28 21:05 054 9 gusting 18 26.7
2014-Jul-28 21:00 045 13 gusting 19 26.7
2014-Jul-28 20:55 045 13 gusting 19 26.7
2014-Jul-28 20:50 047 13 gusting 19 26.7
2014-Jul-28 20:45 047 13 gusting 19 26.7
2014-Jul-28 20:40 045 12 gusting 19 27.2
2014-Jul-28 20:35 037 13 gusting 21 27.2
2014-Jul-28 20:30 041 18 gusting 24 27.2
2014-Jul-28 20:25 046 18 gusting 26 27.2
2014-Jul-28 20:20 042 18 gusting 26 27.2
2014-Jul-28 20:15 045 14 gusting 23 27.8
2014-Jul-28 20:10 047 19 gusting 25 27.8
2014-Jul-28 20:05 046 18 gusting 25 27.8
2014-Jul-28 20:00 048 17 gusting 27 27.8
2014-Jul-28 19:55 047 18 gusting 27 28.3
2014-Jul-28 19:50 044 17 gusting 27 28.9
2014-Jul-28 19:45 046 18 gusting 20 29.4
2014-Jul-28 19:40 037 13 gusting 16 30.0
2014-Jul-28 19:35 004 7 gusting 14 30.6
2014-Jul-28 19:30 354 7 gusting 14 30.6
2014-Jul-28 19:25 004 10 gusting 13 30.6
2014-Jul-28 19:20 010 8 gusting 13 31.1
2014-Jul-28 19:15 006 6 gusting 16 31.1
2014-Jul-28 19:10 008 9 gusting 16 31.1
2014-Jul-28 19:05 019 13 gusting 16 31.1
2014-Jul-28 19:00 030 11 gusting 13 31.7
2014-Jul-28 18:55 025 8 gusting 13 31.7
2014-Jul-28 18:50 013 7 gusting 13 31.7
2014-Jul-28 18:45 017 8 gusting 16 31.7
2014-Jul-28 18:40 009 8 gusting 16 31.7
2014-Jul-28 18:35 355 12 gusting 16 31.7
2014-Jul-28 18:30 351 13 gusting 16 32.2
2014-Jul-28 18:25 344 9 gusting 13 32.2
2014-Jul-28 18:20 343 8 gusting 13 32.2
2014-Jul-28 18:15 332 11 gusting 13 32.8
2014-Jul-28 18:10 320 6 gusting 10 32.8
2014-Jul-28 18:05 333 7 gusting 13 32.8
2014-Jul-28 18:00 352 7 gusting 13 32.8
2014-Jul-28 17:55 351 10 gusting 14 33.3
2014-Jul-28 17:50 346 9 gusting 14 33.3
2014-Jul-28 17:45 347 10 gusting 15 33.3
2014-Jul-28 17:40 338 6 gusting 15 33.3
2014-Jul-28 17:35 334 11 gusting 15 33.3
2014-Jul-28 17:30 320 5 gusting 13 33.9
2014-Jul-28 17:25 306 6 gusting 14 33.9
2014-Jul-28 17:20 344 4 gusting 14 33.3
2014-Jul-28 17:15 352 12 gusting 17 33.3
2014-Jul-28 17:10 347 9 gusting 17 33.3
2014-Jul-28 17:05 331 11 gusting 17 33.3
2014-Jul-28 17:00 314 13 gusting 17 33.3
2014-Jul-28 16:55 323 12 gusting 16 33.3
2014-Jul-28 16:50 321 10 gusting 17 33.3
2014-Jul-28 16:45 322 9 gusting 17 33.9
2014-Jul-28 16:40 348 6 gusting 19 33.9
2014-Jul-28 16:35 350 11 gusting 19 33.9
2014-Jul-28 16:30 341 10 gusting 14 33.9
2014-Jul-28 16:25 325 6 gusting 18 33.9
2014-Jul-28 16:20 329 6 gusting 18 33.3
2014-Jul-28 16:15 341 9 gusting 14 33.9
2014-Jul-28 16:10 339 6 gusting 13 34.4
2014-Jul-28 16:05 345 7 gusting 15 33.9
2014-Jul-28 16:00 342 7 gusting 16 33.9
2014-Jul-28 15:55 345 8 gusting 16 34.4
2014-Jul-28 15:50 002 6 gusting 13 33.9
2014-Jul-28 15:45 008 8 gusting 13 33.9
2014-Jul-28 15:40 003 9 gusting 13 33.9
2014-Jul-28 15:35 344 8 gusting 18 34.4
2014-Jul-28 15:30 347 6 gusting 18 33.9
2014-Jul-28 15:25 331 6 gusting 16 34.4
2014-Jul-28 15:20 316 3 gusting 14 33.9
2014-Jul-28 15:15 331 8 gusting 14 34.4
2014-Jul-28 15:10 338 9 gusting 14 34.4
2014-Jul-28 15:05 317 6 gusting 13 34.4
2014-Jul-28 15:00 276 3 gusting 14 35.0
2014-Jul-28 14:55 275 3 gusting 19 33.9
2014-Jul-28 14:50 324 11 gusting 19 33.3
2014-Jul-28 14:45 354 6 gusting 22 33.9
2014-Jul-28 14:40 282 12 gusting 22 34.4
2014-Jul-28 14:35 248 6 gusting 14 33.9
2014-Jul-28 14:30 269 12 gusting 14 33.3
2014-Jul-28 14:25 261 6 gusting 13 33.3
2014-Jul-28 14:20 257 2 gusting 14 33.3
2014-Jul-28 14:15 283 9 gusting 14 33.3
2014-Jul-28 14:10 308 9 gusting 11 33.9
2014-Jul-28 14:05 310 6 gusting 12 33.3
2014-Jul-28 14:00 308 6 gusting 12 33.3
2014-Jul-28 13:55 322 6 gusting 9 33.9
2014-Jul-28 13:50 313 3 gusting 13 33.9
2014-Jul-28 13:45 287 5 gusting 13 33.3
2014-Jul-28 13:40 276 7 gusting 14 32.8
2014-Jul-28 13:35 291 10 gusting 18 33.3
2014-Jul-28 13:30 293 5 gusting 19 32.8
2014-Jul-28 13:25 271 11 gusting 19 32.8
2014-Jul-28 13:20 274 9 gusting 14 33.3
2014-Jul-28 13:15 276 6 gusting 15 33.3
2014-Jul-28 13:10 256 8 gusting 21 33.3
2014-Jul-28 13:05 250 9 gusting 21 33.9
2014-Jul-28 13:00 207 8 gusting 13 33.9
2014-Jul-28 12:55 212 5 gusting 14 33.3
2014-Jul-28 12:50 275 12 gusting 27 32.8
2014-Jul-28 12:45 282 4 gusting 27 32.2
2014-Jul-28 12:40 280 16 gusting 27 32.2
2014-Jul-28 12:35 272 8 gusting 18 32.2
2014-Jul-28 12:30 273 12 gusting 24 32.2
2014-Jul-28 12:25 272 14 gusting 24 32.2
2014-Jul-28 12:20 245 9 gusting 18 32.2
2014-Jul-28 12:15 240 12 gusting 16 32.2
2014-Jul-28 12:10 234 8 gusting 13 32.8
2014-Jul-28 12:05 254 9 gusting 18 31.7
2014-Jul-28 12:00 265 9 gusting 19 31.7
2014-Jul-28 11:55 242 13 gusting 19 32.2
2014-Jul-28 11:50 225 7 gusting 13 31.7
2014-Jul-28 11:45 250 11 gusting 16 31.7
2014-Jul-28 11:40 294 9 gusting 16 31.7
2014-Jul-28 11:35 287 8 gusting 18 31.1
2014-Jul-28 11:30 277 8 gusting 19 31.1
2014-Jul-28 11:25 287 11 gusting 19 30.6
2014-Jul-28 11:20 295 14 gusting 19 31.1
2014-Jul-28 11:15 286 7 gusting 18 31.1
2014-Jul-28 11:10 283 9 gusting 18 31.1
2014-Jul-28 11:05 263 11 gusting 18 31.1
2014-Jul-28 11:00 270 9 gusting 19 31.1
2014-Jul-28 10:55 304 7 gusting 19 30.6
2014-Jul-28 10:50 287 7 gusting 15 30.0
2014-Jul-28 10:45 280 13 gusting 18 30.6
2014-Jul-28 10:40 280 8 gusting 18 30.6
2014-Jul-28 10:35 269 8 gusting 13 30.6
2014-Jul-28 10:30 270 9 gusting 13 31.1
2014-Jul-28 10:25 244 8 gusting 15 30.6
2014-Jul-28 10:20 242 6 gusting 15 30.0
2014-Jul-28 10:15 236 5 gusting 13 29.4
2014-Jul-28 10:10 225 6 gusting 9 30.0
2014-Jul-28 10:05 224 5 gusting 9 29.4
2014-Jul-28 10:00 228 5 gusting 12 29.4
2014-Jul-28 09:55 238 6 gusting 12 29.4
2014-Jul-28 09:50 268 8 gusting 10 29.4
2014-Jul-28 09:45 283 1 gusting 12 29.4
2014-Jul-28 09:40 270 4 gusting 12 28.9
2014-Jul-28 09:35 236 1 gusting 10 28.9
2014-Jul-28 09:30 219 8 gusting 10 29.4
2014-Jul-28 09:25 253 2 gusting 9 28.9
2014-Jul-28 09:20 255 3 gusting 9 28.9
2014-Jul-28 09:15 265 5 gusting 7 29.4
2014-Jul-28 09:10 257 1 gusting 7 28.9
2014-Jul-28 09:05 335 2 gusting 4 28.9
2014-Jul-28 09:00 357 3 gusting 4 28.3
2014-Jul-28 08:55 353 2 gusting 4 28.3
2014-Jul-28 08:50 047 2 gusting 4 28.9
2014-Jul-28 08:45 099 2 gusting 4 28.9
2014-Jul-28 08:40 211 0 gusting 3 28.3
2014-Jul-28 08:35 223 1 gusting 3 28.9
2014-Jul-28 08:30 006 1 gusting 3 28.9
2014-Jul-28 08:25 356 1 gusting 3 28.9
2014-Jul-28 08:20 28.3
2014-Jul-28 08:15 003 0 gusting 4 26.7
2014-Jul-28 08:10 001 3 gusting 4 26.1
2014-Jul-28 08:05 350 3 gusting 4 26.1
2014-Jul-28 08:00 338 3 gusting 5 26.1
2014-Jul-28 07:55 346 1 gusting 6 25.6
2014-Jul-28 07:50 357 1 gusting 6 25.0
2014-Jul-28 07:45 001 4 gusting 6 25.6
2014-Jul-28 07:40 002 3 gusting 6 25.6
2014-Jul-28 07:35 349 2 gusting 6 25.6
2014-Jul-28 07:30 341 1 gusting 6 25.0
2014-Jul-28 07:25 005 3 gusting 6 25.6
2014-Jul-28 07:20 064 2 gusting 4 26.1
2014-Jul-28 07:15 090 1 gusting 3 26.7
2014-Jul-28 07:10 118 1 gusting 3 26.1
2014-Jul-28 07:05 134 0 gusting 3 25.0
2014-Jul-28 07:00 126 1 gusting 4 24.4
2014-Jul-28 06:55 110 1 gusting 4 24.4
2014-Jul-28 06:50 115 3 gusting 5 24.4
2014-Jul-28 06:45 113 2 gusting 5 23.9
2014-Jul-28 06:40 088 3 gusting 5 23.9
2014-Jul-28 06:35 085 3 gusting 6 23.9
2014-Jul-28 06:30 089 3 gusting 6 23.3
2014-Jul-28 06:25 091 6 gusting 6 23.9
2014-Jul-28 06:15 074 4 gusting 6 23.9
2014-Jul-28 06:10 056 2 gusting 4 23.9
2014-Jul-28 06:05 052 3 gusting 4 23.3
2014-Jul-28 06:00 061 3 gusting 4 23.3
2014-Jul-28 05:55 062 3 gusting 5 23.3
2014-Jul-28 05:50 052 1 gusting 5 23.3
2014-Jul-28 05:45 044 3 gusting 5 22.8
2014-Jul-28 05:40 040 3 gusting 4 22.8
2014-Jul-28 05:35 025 3 gusting 5 22.8
2014-Jul-28 05:30 038 2 gusting 6 22.8
2014-Jul-28 05:25 044 3 gusting 6 22.8
2014-Jul-28 05:20 042 3 gusting 6 22.8
2014-Jul-28 05:15 050 3 gusting 6 22.8
2014-Jul-28 05:10 059 2 gusting 3 22.8
2014-Jul-28 05:05 076 2 gusting 3 22.8
2014-Jul-28 05:00 073 2 gusting 4 22.8
2014-Jul-28 04:55 051 1 gusting 5 23.3
2014-Jul-28 04:50 044 3 gusting 6 23.3
2014-Jul-28 04:45 042 4 gusting 8 23.3
2014-Jul-28 04:40 046 5 gusting 8 23.3
2014-Jul-28 04:35 045 6 gusting 8 23.3
2014-Jul-28 04:30 043 6 gusting 7 23.3
2014-Jul-28 04:25 049 4 gusting 6 23.3
2014-Jul-28 04:20 050 4 gusting 7 23.3
2014-Jul-28 04:15 049 6 gusting 7 23.3
2014-Jul-28 04:10 047 4 gusting 6 23.3
2014-Jul-28 04:05 043 4 gusting 7 23.3
2014-Jul-28 04:00 046 4 gusting 7 23.3
2014-Jul-28 03:55 046 4 gusting 9 23.9
2014-Jul-28 03:50 043 6 gusting 9 23.9
2014-Jul-28 03:45 051 6 gusting 9 23.9
2014-Jul-28 03:40 052 6 gusting 9 23.9
2014-Jul-28 03:35 048 7 gusting 9 23.9
2014-Jul-28 03:30 037 6 gusting 9 23.9
2014-Jul-28 03:25 032 5 gusting 6 23.9
2014-Jul-28 03:20 037 3 gusting 6 23.9
2014-Jul-28 03:15 024 3 gusting 6 23.9
2014-Jul-28 03:10 013 3 gusting 6 23.9
2014-Jul-28 03:05 021 4 gusting 7 24.4
2014-Jul-28 03:00 038 3 gusting 7 24.4
2014-Jul-28 02:55 047 6 gusting 7 24.4
2014-Jul-28 02:50 049 6 gusting 7 24.4
2014-Jul-28 02:45 047 6 gusting 9 24.4
2014-Jul-28 02:40 049 5 gusting 9 24.4
2014-Jul-28 02:35 047 6 gusting 8 24.4
2014-Jul-28 02:30 043 6 gusting 9 24.4
2014-Jul-28 02:25 045 5 gusting 12 24.4
2014-Jul-28 02:20 049 6 gusting 12 24.4
2014-Jul-28 02:15 047 9 gusting 12 24.4
2014-Jul-28 02:10 044 6 gusting 9 24.4
2014-Jul-28 02:05 045 6 gusting 11 24.4
2014-Jul-28 02:00 043 6 gusting 11 24.4
2014-Jul-28 01:55 043 6 gusting 10 24.4
2014-Jul-28 01:50 045 5 gusting 13 24.4
2014-Jul-28 01:45 044 8 gusting 13 25.0
2014-Jul-28 01:40 044 9 gusting 13 25.0
2014-Jul-28 01:35 047 6 gusting 9 25.0
2014-Jul-28 01:30 040 6 gusting 9 25.0
2014-Jul-28 01:25 036 6 gusting 10 25.0
2014-Jul-28 01:20 045 6 gusting 10 25.0
2014-Jul-28 01:15 060 5 gusting 9 25.0
2014-Jul-28 01:10 060 6 gusting 9 25.0
2014-Jul-28 01:05 059 6 gusting 10 25.0
2014-Jul-28 01:00 054 6 gusting 10 25.6
2014-Jul-28 00:55 048 6 gusting 9 25.6
2014-Jul-28 00:50 047 6 gusting 9 25.6
2014-Jul-28 00:45 048 6 gusting 9 25.6
2014-Jul-28 00:40 049 6 gusting 12 25.6
2014-Jul-28 00:35 047 8 gusting 12 25.6
2014-Jul-28 00:30 045 7 gusting 13 25.6
2014-Jul-28 00:25 044 7 gusting 13 25.6
2014-Jul-28 00:20 048 8 gusting 12 26.1
2014-Jul-28 00:15 046 6 gusting 11 26.1
2014-Jul-28 00:10 043 7 gusting 11 26.1
2014-Jul-28 00:05 045 6 gusting 9 26.1
2014-Jul-28 00:00 044 6 gusting 9 26.1
2014-Jul-27 23:55 043 6 gusting 9 26.7
2014-Jul-27 23:50 038 6 gusting 7 26.7
2014-Jul-27 23:45 037 3 gusting 9 26.7
2014-Jul-27 23:40 045 2 gusting 9 26.7
2014-Jul-27 23:35 067 8 gusting 9 26.7
2014-Jul-27 23:30 074 6 gusting 10 26.7
2014-Jul-27 23:25 073 5 gusting 10 26.7
2014-Jul-27 23:20 081 6 gusting 9 26.7
2014-Jul-27 23:15 086 3 gusting 6 26.7
2014-Jul-27 23:10 093 5 gusting 7 27.2
2014-Jul-27 23:05 082 5 gusting 9 27.2
2014-Jul-27 23:00 093 6 gusting 9 27.2
2014-Jul-27 22:55 099 3 gusting 7 27.2
2014-Jul-27 22:50 090 5 gusting 11 27.2
2014-Jul-27 22:45 100 5 gusting 13 27.8
2014-Jul-27 22:40 095 7 gusting 13 28.3
2014-Jul-27 22:35 060 8 gusting 10 29.4
2014-Jul-27 22:30 29.4
2014-Jul-27 22:25 270 1 gusting 4 29.4
2014-Jul-27 22:20 270 3 gusting 5 30.0
2014-Jul-27 22:15 284 2 gusting 5 30.0
2014-Jul-27 22:10 306 3 gusting 5 30.0
2014-Jul-27 22:05 295 3 gusting 6 30.0
2014-Jul-27 22:00 280 3 gusting 6 30.0
2014-Jul-27 21:55 287 4 gusting 6 30.0
2014-Jul-27 21:50 290 4 gusting 6 30.0
2014-Jul-27 21:45 278 3 gusting 6 30.6
2014-Jul-27 21:40 274 5 gusting 6 30.6
2014-Jul-27 21:35 273 3 gusting 7 30.6
2014-Jul-27 21:30 278 5 gusting 7 30.6
2014-Jul-27 21:25 288 4 gusting 10 30.6
2014-Jul-27 21:20 270 6 gusting 10 30.6
2014-Jul-27 21:15 251 6 gusting 7 30.6
2014-Jul-27 21:10 259 5 gusting 7 30.6
2014-Jul-27 21:05 262 4 gusting 6 30.6
2014-Jul-27 21:00 266 5 gusting 11 31.1
2014-Jul-27 20:55 269 6 gusting 11 31.1
2014-Jul-27 20:50 274 3 gusting 10 31.1
2014-Jul-27 20:45 286 6 gusting 10 31.1
2014-Jul-27 20:40 280 5 gusting 10 31.7
2014-Jul-27 20:35 283 5 gusting 10 31.7
2014-Jul-27 20:30 287 5 gusting 9 31.7
2014-Jul-27 20:25 275 6 gusting 9 31.7
2014-Jul-27 20:20 253 5 gusting 9 31.7
2014-Jul-27 20:15 243 5 gusting 6 31.7
2014-Jul-27 20:10 247 5 gusting 6 31.7
2014-Jul-27 20:05 250 4 gusting 6 32.2
2014-Jul-27 20:00 256 4 gusting 6 32.2
2014-Jul-27 19:55 270 4 gusting 6 32.2
2014-Jul-27 19:50 282 5 gusting 8 32.2
2014-Jul-27 19:45 299 4 gusting 9 32.8
2014-Jul-27 19:40 289 5 gusting 9 32.2
2014-Jul-27 19:35 263 7 gusting 9 32.2
2014-Jul-27 19:30 255 5 gusting 9 32.8
2014-Jul-27 19:25 253 5 gusting 9 32.8
2014-Jul-27 19:20 268 5 gusting 9 32.8
2014-Jul-27 19:15 285 6 gusting 13 32.8
2014-Jul-27 19:10 285 5 gusting 13 33.3
2014-Jul-27 19:05 302 10 gusting 13 33.3
2014-Jul-27 19:00 317 6 gusting 13 33.3
2014-Jul-27 18:55 305 6 gusting 13 33.3
2014-Jul-27 18:50 270 9 gusting 13 33.3
2014-Jul-27 18:45 281 9 gusting 14 33.3
2014-Jul-27 18:40 270 10 gusting 14 33.9
2014-Jul-27 18:35 269 9 gusting 14 33.9
2014-Jul-27 18:30 304 10 gusting 14 33.9
2014-Jul-27 18:25 291 5 gusting 13 33.9
2014-Jul-27 18:20 280 9 gusting 13 33.9
2014-Jul-27 18:15 249 2 gusting 11 33.9
2014-Jul-27 18:10 225 9 gusting 11 34.4
2014-Jul-27 18:05 241 8 gusting 16 33.9
2014-Jul-27 18:00 266 8 gusting 16 33.9
2014-Jul-27 17:55 280 12 gusting 15 34.4
2014-Jul-27 17:50 275 4 gusting 9 35.0
2014-Jul-27 17:45 274 6 gusting 10 35.0
2014-Jul-27 17:40 287 7 gusting 10 35.0
2014-Jul-27 17:35 293 3 gusting 13 35.0
2014-Jul-27 17:30 297 3 gusting 13 34.4
2014-Jul-27 17:25 263 6 gusting 11 34.4
2014-Jul-27 17:20 241 9 gusting 13 35.0
2014-Jul-27 17:15 276 6 gusting 13 34.4
2014-Jul-27 17:10 270 7 gusting 13 34.4
2014-Jul-27 17:05 240 6 gusting 13 35.0
2014-Jul-27 17:00 227 12 gusting 14 35.0
2014-Jul-27 16:55 223 7 gusting 14 35.6
2014-Jul-27 16:50 231 3 gusting 9 36.1
2014-Jul-27 16:45 244 3 gusting 10 36.1
2014-Jul-27 16:40 222 3 gusting 10 37.2
2014-Jul-27 16:35 215 1 gusting 9 36.7
2014-Jul-27 16:30 255 3 gusting 9 36.7
2014-Jul-27 16:25 243 3 gusting 9 35.6
2014-Jul-27 16:20 171 6 gusting 7 36.7
2014-Jul-27 16:15 213 1 gusting 9 35.6
2014-Jul-27 16:10 231 0 gusting 9 35.0
2014-Jul-27 16:05 251 6 gusting 15 35.0
2014-Jul-27 16:00 289 6 gusting 15 35.0
2014-Jul-27 15:55 296 7 gusting 10 36.1
2014-Jul-27 15:50 332 5 gusting 8 36.7
2014-Jul-27 15:45 342 0 gusting 6 36.1
2014-Jul-27 15:40 334 1 gusting 6 35.6
2014-Jul-27 15:35 298 4 gusting 11 35.0
2014-Jul-27 15:30 262 3 gusting 11 34.4
2014-Jul-27 15:25 243 9 gusting 10 35.0
2014-Jul-27 15:20 216 9 gusting 10 36.1
2014-Jul-27 15:15 046 0 gusting 5 36.1
2014-Jul-27 15:10 029 1 gusting 6 35.6
2014-Jul-27 15:05 350 4 gusting 10 35.0
2014-Jul-27 15:00 318 3 gusting 10 34.4
2014-Jul-27 14:55 328 7 gusting 10 35.6
2014-Jul-27 14:50 325 3 gusting 8 35.6
2014-Jul-27 14:45 268 0 gusting 8 35.6
2014-Jul-27 14:40 269 0 gusting 10 34.4
2014-Jul-27 14:35 260 4 gusting 12 33.9
2014-Jul-27 14:30 254 6 gusting 13 34.4
2014-Jul-27 14:25 252 6 gusting 13 34.4
2014-Jul-27 14:20 211 3 gusting 6 36.1
2014-Jul-27 14:15 219 1 gusting 6 35.6
2014-Jul-27 14:10 229 1 gusting 6 34.4
2014-Jul-27 14:05 267 1 gusting 14 33.3
2014-Jul-27 14:00 279 1 gusting 16 33.3
2014-Jul-27 13:55 267 11 gusting 19 33.3
2014-Jul-27 13:50 244 11 gusting 19 33.9
2014-Jul-27 13:40 128 1 gusting 8 34.4
2014-Jul-27 13:35 218 3 gusting 8 34.4
2014-Jul-27 13:30 305 5 gusting 8 34.4
2014-Jul-27 13:25 313 2 gusting 9 33.3
2014-Jul-27 13:20 290 6 gusting 10 33.3
2014-Jul-27 13:15 271 4 gusting 10 33.3
2014-Jul-27 13:10 215 1 gusting 9 33.9
2014-Jul-27 13:05 189 2 gusting 7 33.9
2014-Jul-27 13:00 215 3 gusting 7 33.9
2014-Jul-27 12:55 234 3 gusting 9 33.3
2014-Jul-27 12:50 247 3 gusting 9 33.9
2014-Jul-27 12:45 279 0 gusting 6 33.3
2014-Jul-27 12:40 282 5 gusting 9 33.3
2014-Jul-27 12:35 261 1 gusting 9 32.8
2014-Jul-27 12:30 215 6 gusting 9 33.9
2014-Jul-27 12:25 209 5 gusting 7 33.9
2014-Jul-27 12:20 250 1 gusting 5 33.9
2014-Jul-27 12:15 301 1 gusting 5 33.3
2014-Jul-27 12:10 355 1 gusting 3 33.3
2014-Jul-27 12:05 031 3 gusting 6 33.3
2014-Jul-27 12:00 051 3 gusting 6 33.3
2014-Jul-27 11:55 051 1 gusting 6 33.3
2014-Jul-27 11:50 024 3 gusting 6 33.3
2014-Jul-27 11:45 124 0 gusting 3 32.8
2014-Jul-27 11:40 127 1 gusting 4 32.2
2014-Jul-27 11:35 102 1 gusting 6 32.2
2014-Jul-27 11:30 086 3 gusting 6 31.7
2014-Jul-27 11:25 115 5 gusting 6 32.2
2014-Jul-27 11:20 31.7
2014-Jul-27 11:15 045 2 gusting 6 31.7
2014-Jul-27 11:10 324 1 gusting 3 32.2
2014-Jul-27 11:05 31.7
2014-Jul-27 11:00 138 2 gusting 6 31.1
2014-Jul-27 10:55 095 2 gusting 6 30.6
2014-Jul-27 10:50 055 1 gusting 6 30.0
2014-Jul-27 10:45 048 3 gusting 4 30.6
2014-Jul-27 10:40 087 2 gusting 6 30.0
2014-Jul-27 10:35 090 1 gusting 6 29.4
2014-Jul-27 10:30 124 4 gusting 6 29.4
2014-Jul-27 10:25 144 2 gusting 6 29.4
2014-Jul-27 10:20 113 5 gusting 6 29.4
2014-Jul-27 10:15 076 3 gusting 6 29.4
2014-Jul-27 10:10 043 2 gusting 6 29.4
2014-Jul-27 10:05 059 3 gusting 7 29.4
2014-Jul-27 10:00 075 3 gusting 7 29.4
2014-Jul-27 09:55 29.4
2014-Jul-27 09:50 105 1 gusting 6 28.3
2014-Jul-27 09:45 080 3 gusting 6 28.3
2014-Jul-27 09:40 053 0 gusting 6 27.2
2014-Jul-27 09:35 040 5 gusting 6 27.2
2014-Jul-27 09:30 075 3 gusting 8 27.2
2014-Jul-27 09:25 097 3 gusting 8 27.2
2014-Jul-27 09:20 121 3 gusting 6 27.2
2014-Jul-27 09:15 118 3 gusting 6 27.2
2014-Jul-27 09:10 118 5 gusting 6 27.8
2014-Jul-27 09:05 093 1 gusting 6 27.2
2014-Jul-27 09:00 066 3 gusting 6 26.7
2014-Jul-27 08:55 078 2 gusting 7 27.2
2014-Jul-27 08:50 112 3 gusting 7 27.8
2014-Jul-27 08:45 127 1 gusting 5 27.2
2014-Jul-27 08:40 114 3 gusting 5 27.2
2014-Jul-27 08:35 084 1 gusting 6 26.7
2014-Jul-27 08:30 061 1 gusting 6 26.7
2014-Jul-27 08:25 081 0 gusting 6 26.1
2014-Jul-27 08:20 082 5 gusting 6 26.7
2014-Jul-27 08:15 100 0 gusting 6 25.6
2014-Jul-27 08:10 153 3 gusting 6 25.6
2014-Jul-27 08:05 143 2 gusting 6 25.0
2014-Jul-27 08:00 105 2 gusting 6 25.0
2014-Jul-27 07:55 106 3 gusting 6 24.4
2014-Jul-27 07:50 106 3 gusting 6 25.0
2014-Jul-27 07:45 094 1 gusting 6 24.4
2014-Jul-27 07:40 091 4 gusting 6 24.4
2014-Jul-27 07:35 094 2 gusting 6 23.9
2014-Jul-27 07:30 099 4 gusting 6 23.9
2014-Jul-27 07:25 098 3 gusting 6 23.9
2014-Jul-27 07:20 100 4 gusting 6 23.9
2014-Jul-27 07:15 109 3 gusting 6 23.9
2014-Jul-27 07:10 130 4 gusting 5 23.9
2014-Jul-27 07:05 139 2 gusting 4 24.4
2014-Jul-27 07:00 137 3 gusting 4 24.4
2014-Jul-27 06:55 131 0 gusting 4 23.3
2014-Jul-27 06:50 120 2 gusting 4 23.3
2014-Jul-27 06:45 122 2 gusting 4 23.3
2014-Jul-27 06:40 116 1 gusting 4 22.8
2014-Jul-27 06:35 114 2 gusting 4 22.8
2014-Jul-27 06:30 120 3 gusting 5 22.8
2014-Jul-27 06:25 115 3 gusting 5 22.8
2014-Jul-27 06:20 121 2 gusting 4 22.8
2014-Jul-27 06:15 123 2 gusting 4 22.2
2014-Jul-27 06:10 115 3 gusting 4 22.2
2014-Jul-27 06:05 112 3 gusting 6 22.2
2014-Jul-27 06:00 119 3 gusting 6 22.2
2014-Jul-27 05:55 112 2 gusting 6 21.7
2014-Jul-27 05:50 100 3 gusting 6 21.7
2014-Jul-27 05:45 096 3 gusting 6 21.7
2014-Jul-27 05:40 090 3 gusting 6 21.7
2014-Jul-27 05:35 087 5 gusting 6 21.7
2014-Jul-27 05:30 078 4 gusting 6 21.7
2014-Jul-27 05:25 080 3 gusting 6 21.7
2014-Jul-27 05:20 070 3 gusting 6 21.1
2014-Jul-27 05:15 058 3 gusting 6 21.1
2014-Jul-27 05:10 070 1 gusting 5 21.1
2014-Jul-27 05:05 073 1 gusting 5 21.7
2014-Jul-27 05:00 076 1 gusting 6 21.7
2014-Jul-27 04:55 071 3 gusting 6 21.7
2014-Jul-27 04:50 079 4 gusting 6 21.7
2014-Jul-27 04:45 090 4 gusting 6 21.7
2014-Jul-27 04:40 080 4 gusting 6 21.7
2014-Jul-27 04:35 061 2 gusting 9 22.2
2014-Jul-27 04:30 053 6 gusting 9 22.2
2014-Jul-27 04:25 035 7 gusting 9 22.2
2014-Jul-27 04:20 046 5 gusting 10 22.2
2014-Jul-27 04:15 059 5 gusting 11 22.2
2014-Jul-27 04:10 049 6 gusting 11 22.2
2014-Jul-27 04:05 039 7 gusting 12 22.2
2014-Jul-27 04:00 046 7 gusting 12 22.2
2014-Jul-27 03:55 052 4 gusting 11 22.8
2014-Jul-27 03:50 048 8 gusting 11 22.8
2014-Jul-27 03:45 043 7 gusting 11 22.8
2014-Jul-27 03:40 042 7 gusting 10 22.8
2014-Jul-27 03:35 053 7 gusting 11 22.8
2014-Jul-27 03:30 062 7 gusting 11 22.8
2014-Jul-27 03:25 065 6 gusting 13 22.8
2014-Jul-27 03:20 056 6 gusting 13 22.8
2014-Jul-27 03:15 050 6 gusting 13 22.8
2014-Jul-27 03:10 048 6 gusting 14 22.8
2014-Jul-27 03:05 051 6 gusting 14 23.3
2014-Jul-27 03:00 047 6 gusting 13 23.3
2014-Jul-27 02:55 044 7 gusting 13 23.3
2014-Jul-27 02:50 050 10 gusting 13 23.3
2014-Jul-27 02:45 047 6 gusting 13 23.3
2014-Jul-27 02:40 043 10 gusting 13 23.3
2014-Jul-27 02:35 059 6 gusting 10 23.3
2014-Jul-27 02:30 062 7 gusting 12 23.3
2014-Jul-27 02:25 055 6 gusting 12 23.3
2014-Jul-27 02:20 046 5 gusting 13 23.9
2014-Jul-27 02:15 041 7 gusting 13 23.9
2014-Jul-27 02:10 045 10 gusting 12 23.9
2014-Jul-27 02:05 056 9 gusting 14 23.9
2014-Jul-27 02:00 068 9 gusting 14 23.9
2014-Jul-27 01:55 064 9 gusting 13 23.9
2014-Jul-27 01:50 060 8 gusting 13 23.9
2014-Jul-27 01:45 050 11 gusting 13 23.9
2014-Jul-27 01:40 043 8 gusting 13 23.9
2014-Jul-27 01:35 042 8 gusting 12 24.4
2014-Jul-27 01:30 038 10 gusting 13 24.4
2014-Jul-27 01:25 043 7 gusting 13 24.4
2014-Jul-27 01:20 055 11 gusting 13 24.4
2014-Jul-27 01:15 059 6 gusting 11 24.4
2014-Jul-27 01:10 045 6 gusting 11 24.4
2014-Jul-27 01:05 039 7 gusting 11 24.4
2014-Jul-27 01:00 044 7 gusting 11 24.4
2014-Jul-27 00:55 057 7 gusting 11 24.4
2014-Jul-27 00:50 055 6 gusting 11 25.0
2014-Jul-27 00:45 040 6 gusting 12 25.0
2014-Jul-27 00:40 047 8 gusting 12 25.0
2014-Jul-27 00:35 052 7 gusting 14 25.0
2014-Jul-27 00:30 053 9 gusting 14 25.0
2014-Jul-27 00:25 059 7 gusting 13 25.0
2014-Jul-27 00:20 053 7 gusting 13 25.0
2014-Jul-27 00:15 057 7 gusting 12 25.0
2014-Jul-27 00:10 067 9 gusting 12 25.6
2014-Jul-27 00:05 061 9 gusting 11 25.6
2014-Jul-27 00:00 049 9 gusting 11 25.6